Terminal Aerodrome Forecast
Issued by NWS

Home | Current Version | Previous Version | Text Only | Print | Product List | Glossary On
Versions: 1 2 3 4 5 6 7 8 9 10 11 12 13 14 15 16 17 18 19 20 21 22 23 24 25 26 27 28 29 30 31 32 33 34 35 36 37 38 39 40
328
FTUS46 KLOX 250530
TAFLAX
TAF
KLAX 250530Z 2506/2612 26007KT P6SM FEW008
     FM250900 26004KT P6SM BKN006
     FM251100 VRB03KT 4SM BR OVC004
     FM251400 VRB03KT 5SM BR OVC007
     FM251800 27011KT 6SM HZ SCT008
     FM252000 26011KT P6SM SKC
     FM260300 25007KT P6SM SKC
     FM261000 VRB03KT P6SM BKN006=

USA.gov is the U.S. government's official web portal to all federal, state and local government web resources and services.